FW3190 Weather Reports


time (UTC)temp
C
wind
direction
speed
KPH
gust
KPH
rain 1hr
cm
rain 24hr
cm
rain mn
cm
humidity
%
barometer
mb
20260506201536 18 115 6.4 14.5 0.00 0.00 0.00 68 1022.9
20260506200040 18 60 6.4 19.3 0.00 0.00 0.00 68 1022.9
20260506194530 18 60 4.8 14.5 0.00 0.00 0.00 70 1023.0
20260506193030 18 354 4.8 16.1 0.00 0.00 0.00 71 1023.0
20260506191526 16 69 4.8 16.1 0.00 0.00 0.00 75 1023.3
20260506190024 17 77 6.4 14.5 0.00 0.00 0.00 74 1023.4
20260506184525 17 63 3.2 12.9 0.00 0.00 0.00 72 1023.4
20260506183021 16 55 3.2 14.5 0.00 0.00 0.00 75 1023.5
20260506181519 16 27 4.8 11.3 0.00 0.00 0.00 74 1023.5
20260506180018 16 68 3.2 14.5 0.00 0.00 0.00 77 1023.3
20260506174514 15 37 3.2 9.7 0.00 0.00 0.00 77 1023.3
20260506173010 15 37 3.2 11.3 0.00 0.00 0.00 77 1023.3
20260506171506 15 34 0.0 6.4 0.00 0.00 0.00 78 1023.5
20260506170005 15 233 3.2 8.0 0.00 0.00 0.00 77 1023.6
20260506164502 14 37 0.0 4.8 0.00 0.00 0.00 82 1023.6
20260506163107 13 55 1.6 8.0 0.00 0.00 0.00 80 1023.6
20260506161559 13 110 0.0 4.8 0.00 0.00 0.00 82 1023.6
20260506160110 13 41 0.0 4.8 0.00 0.00 0.00 81 1023.7
20260506154555 13 281 0.0 1.6 0.00 0.03 0.00 84 1023.7
20260506153055 13 336 0.0 3.2 0.00 0.03 0.00 84 1023.7
20260506151550 12 116 0.0 3.2 0.00 0.03 0.00 85 1023.7
20260506150048 12 17 0.0 8.0 0.00 0.03 0.00 85 1023.5
20260506144547 12 42 0.0 3.2 0.00 0.05 0.00 86 1023.6
20260506143044 12 59 0.0 0.0 0.00 0.05 0.00 87 1023.5
20260506141559 11 101 0.0 1.6 0.00 0.05 0.00 87 1023.2
20260506140040 11 101 0.0 0.0 0.00 0.05 0.00 88 1023.1
20260506134537 11 101 0.0 0.0 0.00 0.05 0.00 88 1022.9
20260506133036 11 101 0.0 1.6 0.00 0.05 0.00 88 1022.8
20260506131539 11 108 0.0 1.6 0.00 0.05 0.00 87 1022.7
20260506130034 11 60 0.0 1.6 0.00 0.05 0.00 87 1022.6
20260506124538 11 89 0.0 6.4 0.00 0.05 0.00 87 1022.5
20260506123039 11 111 0.0 3.2 0.00 0.05 0.00 87 1022.4
20260506121530 11 103 0.0 1.6 0.00 0.05 0.00 87 1022.3
20260506120046 11 114 1.6 4.8 0.00 0.05 0.00 87 1022.2
20260506114530 11 86 0.0 3.2 0.00 0.05 0.00 87 1022.2
20260506113028 11 99 0.0 0.0 0.00 0.05 0.00 87 1022.0
20260506111526 11 98 0.0 4.8 0.00 0.05 0.00 87 1021.7
20260506110027 11 101 1.6 4.8 0.00 0.05 0.00 87 1021.7
20260506104524 11 91 1.6 4.8 0.00 0.05 0.00 87 1021.7
20260506103029 11 101 1.6 4.8 0.00 0.05 0.00 87 1021.6
20260506101523 11 95 0.0 3.2 0.00 0.05 0.00 88 1021.7
20260506100023 11 103 1.6 3.2 0.00 0.05 0.00 88 1021.6
20260506094531 11 109 1.6 3.2 0.00 0.08 0.00 88 1021.6
20260506093039 11 90 0.0 3.2 0.00 0.08 0.00 88 1021.5
20260506091523 11 44 0.0 3.2 0.00 0.08 0.00 88 1021.7
20260506090020 11 58 0.0 1.6 0.00 0.08 0.00 88 1021.6
20260506084519 11 68 0.0 3.2 0.00 0.18 0.00 88 1021.6
20260506083018 11 60 0.0 4.8 0.00 0.18 0.00 88 1021.6
20260506081516 11 108 0.0 3.2 0.00 0.18 0.00 89 1021.7
20260506073012 11 102 0.0 1.6 0.00 0.25 0.00 90 1021.4
20260506071510 11 65 0.0 1.6 0.00 0.25 0.00 89 1021.3
20260506061505 11 42 0.0 8.0 0.00 0.28 0.25 87 1021.1
20260506050114 12 50 4.8 14.5 0.00 0.28 0.25 84 1020.7
20260506044603 12 52 6.4 12.9 0.00 0.28 0.25 84 1020.7
20260506044502 12 41 6.4 12.9 0.00 0.28 0.25 84 1020.7
20260506043100 12 58 3.2 14.5 0.00 0.28 0.25 85 1020.5
20260506041558 12 81 6.4 11.3 0.00 0.28 0.25 85 1020.4
20260506040059 12 46 3.2 12.9 0.00 0.28 0.25 85 1020.2
20260506034556 12 77 3.2 14.5 0.00 0.28 0.25 85 1020.0
20260506033052 12 65 1.6 8.0 0.00 0.28 0.25 84 1019.7
20260506031559 12 102 8.0 17.7 0.00 0.28 0.25 84 1019.4
20260506030108 12 44 4.8 17.7 0.00 0.28 0.25 83 1019.2
20260506024548 13 81 9.7 17.7 0.00 0.28 0.25 82 1019.3
20260506023047 13 32 4.8 17.7 0.00 0.28 0.25 81 1019.1
20260506021545 13 68 6.4 17.7 0.00 0.28 0.25 80 1019.0
20260506020045 13 53 3.2 24.1 0.00 0.28 0.25 80 1018.9
20260506014545 13 46 6.4 16.1 0.00 0.28 0.25 79 1018.7
20260506013047 13 49 6.4 12.9 0.00 0.28 0.25 80 1018.8
20260506011547 13 37 4.8 16.1 0.00 0.28 0.25 80 1018.9
20260506010143 13 57 3.2 17.7 0.00 0.28 0.25 80 1018.9
20260506004615 13 25 4.8 16.1 0.00 0.28 0.25 79 1018.8
20260506003042 14 54 1.6 11.3 0.00 0.28 0.25 79 1018.7
20260506001541 14 91 3.2 17.7 0.00 0.28 0.25 78 1018.6
20260506000044 14 23 3.2 16.1 0.00 0.28 0.25 79 1018.5
20260505234606 14 41 4.8 14.5 0.00 0.28 0.25 79 1018.7
20260505233039 14 71 6.4 12.9 0.00 0.28 0.25 78 1018.5
20260505231538 14 42 4.8 14.5 0.00 0.28 0.25 78 1018.6
20260505230037 15 92 6.4 16.1 0.00 0.28 0.25 77 1018.7
20260505224536 15 49 4.8 12.9 0.00 0.28 0.25 75 1018.6
20260505223051 15 87 4.8 16.1 0.00 0.28 0.25 75 1018.5
20260505221534 15 62 3.2 12.9 0.00 0.28 0.25 76 1018.5
20260505220031 14 23 8.0 16.1 0.00 0.28 0.25 77 1018.6
20260505214538 14 68 3.2 14.5 0.00 0.28 0.25 79 1018.8
20260505213029 14 26 4.8 16.1 0.00 0.28 0.25 80 1018.8
20260505211528 14 47 0.0 6.4 0.00 0.28 0.25 80 1018.9
20260505210029 13 24 1.6 9.7 0.00 0.28 0.25 81 1018.9
20260505204528 13 44 1.6 9.7 0.00 0.28 0.25 81 1018.9
20260505203025 13 314 3.2 11.3 0.00 0.28 0.25 82 1018.9